TimeCDT,TemperatureF,Dew PointF,Humidity,Sea Level PressureIn,VisibilityMPH,Wind Direction,Wind SpeedMPH,Gust SpeedMPH,PrecipitationIn,Events,Conditions,WindDirDegrees,DateUTC
12:54 AM,45.0,37.9,76,30.07,10.0,Calm,Calm,-,N/A,,Clear,0,2013-03-15 05:54:00
1:54 AM,48.9,39.0,69,30.04,10.0,East,4.6,-,N/A,,Clear,80,2013-03-15 06:54:00
2:54 AM,46.9,39.0,74,30.02,10.0,SE,4.6,-,N/A,,Clear,130,2013-03-15 07:54:00
3:54 AM,45.0,39.0,80,29.99,10.0,SSE,5.8,-,N/A,,Clear,160,2013-03-15 08:54:00
4:54 AM,43.0,37.9,82,29.98,10.0,South,6.9,-,N/A,,Clear,180,2013-03-15 09:54:00
5:54 AM,41.0,37.0,86,29.96,10.0,South,5.8,-,N/A,,Clear,170,2013-03-15 10:54:00
6:54 AM,41.0,37.0,86,29.97,10.0,South,5.8,-,N/A,,Clear,180,2013-03-15 11:54:00
7:54 AM,39.9,37.0,89,29.97,10.0,SSW,5.8,-,N/A,,Clear,210,2013-03-15 12:54:00
8:54 AM,46.0,41.0,83,29.95,10.0,South,3.5,-,N/A,,Clear,180,2013-03-15 13:54:00
9:54 AM,52.0,43.0,71,29.94,10.0,South,5.8,-,N/A,,Clear,170,2013-03-15 14:54:00
10:54 AM,59.0,43.0,55,29.92,10.0,South,5.8,-,N/A,,Clear,180,2013-03-15 15:54:00
11:54 AM,66.0,43.0,43,29.89,10.0,SW,6.9,-,N/A,,Clear,220,2013-03-15 16:54:00
12:54 PM,71.1,45.0,39,29.85,10.0,SSW,11.5,-,N/A,,Clear,200,2013-03-15 17:54:00
1:54 PM,73.0,46.0,38,29.81,10.0,South,11.5,17.3,N/A,,Clear,180,2013-03-15 18:54:00
2:54 PM,73.9,45.0,35,29.75,10.0,South,15.0,-,N/A,,Clear,190,2013-03-15 19:54:00
3:54 PM,77.0,45.0,32,29.73,10.0,SW,16.1,-,N/A,,Clear,220,2013-03-15 20:54:00
4:54 PM,78.1,43.0,29,29.71,10.0,SW,18.4,24.2,N/A,,Clear,230,2013-03-15 21:54:00
5:54 PM,77.0,42.8,29,29.69,10.0,SW,16.1,26.5,N/A,,Clear,230,2013-03-15 22:54:00
6:54 PM,71.1,44.1,38,29.68,10.0,SW,13.8,-,N/A,,Clear,220,2013-03-15 23:54:00
7:54 PM,66.9,44.1,44,29.69,10.0,SW,9.2,-,N/A,,Clear,230,2013-03-16 00:54:00
8:54 PM,64.9,43.0,45,29.69,10.0,SW,9.2,-,N/A,,Clear,230,2013-03-16 01:54:00
9:54 PM,63.0,44.1,50,29.68,10.0,SW,10.4,-,N/A,,Clear,220,2013-03-16 02:54:00
10:54 PM,62.1,46.0,56,29.68,10.0,SW,11.5,-,N/A,,Clear,220,2013-03-16 03:54:00
11:54 PM,62.1,46.0,56,29.66,10.0,SW,12.7,-,N/A,,Clear,220,2013-03-16 04:54:00